Time,TemperatureF,DewpointF,PressureIn,WindDirection,WindDirectionDegrees,WindSpeedMPH,WindSpeedGustMPH,Humidity,HourlyPrecipIn,Conditions,Clouds,dailyrainin,SoftwareType,DateUTC
2013-04-14 00:02:00,43.0,38.0,29.98,NW,318,0.0,0.0,84,0.00,,,0.01,,2013-04-14 04:02:00,
2013-04-14 00:12:00,43.0,38.0,29.98,NW,318,0.0,0.0,84,0.00,,,0.01,,2013-04-14 04:12:00,
2013-04-14 00:23:00,42.0,38.0,29.98,NW,318,0.0,0.0,84,0.00,,,0.01,,2013-04-14 04:23:00,
2013-04-14 00:32:00,42.0,39.0,29.98,NW,318,0.0,1.0,88,0.00,,,0.00,,2013-04-14 04:32:00,
2013-04-14 00:42:00,42.0,39.0,29.98,NW,318,0.0,1.0,88,0.00,,,0.00,,2013-04-14 04:42:00,
2013-04-14 00:52:00,42.0,39.0,29.98,NW,318,0.0,0.0,88,0.00,,,0.00,,2013-04-14 04:52:00,
2013-04-14 01:02:00,42.0,39.0,29.98,NW,318,0.0,1.0,88,0.00,,,0.00,,2013-04-14 05:02:00,
2013-04-14 01:12:00,42.0,39.0,29.98,NW,318,0.0,1.0,88,0.00,,,0.00,,2013-04-14 05:12:00,
2013-04-14 01:22:00,42.0,39.0,29.98,NW,318,0.0,1.0,88,0.00,,,0.00,,2013-04-14 05:22:00,
2013-04-14 01:32:00,42.0,38.0,29.98,NW,318,0.0,0.0,87,0.00,,,0.00,,2013-04-14 05:32:00,
2013-04-14 01:42:00,42.0,38.0,29.98,NW,318,0.0,0.0,87,0.00,,,0.00,,2013-04-14 05:42:00,
2013-04-14 01:52:00,42.0,39.0,29.98,NW,318,0.0,0.0,88,0.00,,,0.00,,2013-04-14 05:52:00,
2013-04-14 02:02:00,42.0,39.0,29.98,NW,318,0.0,0.0,88,0.00,,,0.00,,2013-04-14 06:02:00,
2013-04-14 02:12:00,42.0,39.0,29.98,NW,318,0.0,0.0,88,0.00,,,0.00,,2013-04-14 06:12:00,
2013-04-14 02:22:00,42.0,39.0,29.98,NW,318,0.0,1.0,88,0.00,,,0.00,,2013-04-14 06:22:00,
2013-04-14 02:32:00,42.0,38.0,29.99,NW,318,0.0,0.0,87,0.00,,,0.00,,2013-04-14 06:32:00,
2013-04-14 02:42:00,42.0,38.0,29.99,NW,318,0.0,0.0,87,0.00,,,0.00,,2013-04-14 06:42:00,
2013-04-14 02:52:00,42.0,39.0,29.99,NW,318,0.0,0.0,88,0.00,,,0.00,,2013-04-14 06:52:00,
2013-04-14 03:02:00,42.0,39.0,30.00,NW,318,0.0,0.0,89,0.00,,,0.00,,2013-04-14 07:02:00,
2013-04-14 03:12:00,42.0,39.0,30.00,NW,318,0.0,0.0,89,0.00,,,0.00,,2013-04-14 07:12:00,
2013-04-14 03:22:00,42.0,39.0,29.99,NW,318,0.0,0.0,89,0.00,,,0.00,,2013-04-14 07:22:00,
2013-04-14 03:32:00,42.0,39.0,30.00,NW,318,0.0,3.0,90,0.00,,,0.00,,2013-04-14 07:32:00,
2013-04-14 03:42:00,42.0,39.0,30.00,NW,318,0.0,3.0,90,0.00,,,0.00,,2013-04-14 07:42:00,
2013-04-14 03:52:00,42.0,39.0,30.00,NW,318,0.0,0.0,88,0.00,,,0.00,,2013-04-14 07:52:00,
2013-04-14 04:12:00,43.0,39.0,30.00,NW,318,0.0,0.0,87,0.00,,,0.00,,2013-04-14 08:12:00,
2013-04-14 04:22:00,43.0,39.0,29.99,NW,318,0.0,1.0,86,0.00,,,0.00,,2013-04-14 08:22:00,
2013-04-14 04:32:00,43.0,39.0,29.99,NW,318,0.0,0.0,86,0.00,,,0.00,,2013-04-14 08:32:00,
2013-04-14 04:42:00,43.0,39.0,29.99,NW,318,0.0,0.0,86,0.00,,,0.00,,2013-04-14 08:42:00,
2013-04-14 04:52:00,43.0,39.0,29.99,NW,318,0.0,2.0,87,0.00,,,0.00,,2013-04-14 08:52:00,
2013-04-14 05:02:00,43.0,39.0,29.98,NW,318,0.0,2.0,86,0.00,,,0.00,,2013-04-14 09:02:00,
2013-04-14 05:12:00,43.0,39.0,29.98,NW,318,0.0,2.0,86,0.00,,,0.00,,2013-04-14 09:12:00,
2013-04-14 05:22:00,43.0,39.0,29.98,NW,318,0.0,1.0,87,0.00,,,0.00,,2013-04-14 09:22:00,
2013-04-14 05:32:00,43.0,39.0,29.99,NW,318,0.0,1.0,87,0.00,,,0.00,,2013-04-14 09:32:00,
2013-04-14 05:42:00,43.0,39.0,29.99,NW,318,0.0,1.0,87,0.00,,,0.00,,2013-04-14 09:42:00,
2013-04-14 05:53:00,43.0,39.0,29.98,NW,318,0.0,1.0,86,0.00,,,0.00,,2013-04-14 09:53:00,
2013-04-14 06:03:00,43.0,39.0,29.98,SW,220,0.0,2.0,86,0.00,,,0.00,,2013-04-14 10:03:00,
2013-04-14 06:12:00,43.0,39.0,29.98,SW,220,0.0,2.0,86,0.00,,,0.00,,2013-04-14 10:12:00,
2013-04-14 06:23:00,43.0,39.0,29.98,SW,220,0.0,3.0,85,0.00,,,0.00,,2013-04-14 10:23:00,
2013-04-14 06:32:00,43.0,39.0,29.97,SE,144,1.0,4.0,85,0.00,,,0.00,,2013-04-14 10:32:00,
2013-04-14 06:42:00,43.0,39.0,29.97,SE,144,1.0,4.0,85,0.00,,,0.00,,2013-04-14 10:42:00,
2013-04-14 06:52:00,44.0,39.0,29.96,South,182,2.0,5.0,84,0.00,,,0.00,,2013-04-14 10:52:00,
2013-04-14 07:02:00,44.0,39.0,29.95,SE,134,2.0,7.0,83,0.00,,,0.00,,2013-04-14 11:02:00,
2013-04-14 07:12:00,44.0,39.0,29.95,SE,134,2.0,7.0,83,0.00,,,0.00,,2013-04-14 11:12:00,
2013-04-14 07:22:00,44.0,39.0,29.94,South,171,1.0,4.0,83,0.00,,,0.00,,2013-04-14 11:22:00,
2013-04-14 07:32:00,44.0,39.0,29.94,SE,143,1.0,4.0,82,0.00,,,0.00,,2013-04-14 11:32:00,
2013-04-14 07:42:00,44.0,39.0,29.94,SE,143,1.0,4.0,82,0.00,,,0.00,,2013-04-14 11:42:00,
2013-04-14 07:53:00,43.0,38.0,29.93,SSE,153,0.0,4.0,83,0.00,,,0.00,,2013-04-14 11:53:00,
2013-04-14 08:02:00,43.0,38.0,29.93,SSE,165,1.0,5.0,83,0.00,,,0.00,,2013-04-14 12:02:00,
2013-04-14 08:12:00,43.0,38.0,29.93,SSE,165,1.0,5.0,83,0.00,,,0.00,,2013-04-14 12:12:00,
2013-04-14 08:22:00,43.0,38.0,29.94,SSE,165,1.0,4.0,83,0.00,,,0.00,,2013-04-14 12:22:00,
2013-04-14 08:32:00,44.0,39.0,29.95,SSE,160,2.0,5.0,83,0.00,,,0.00,,2013-04-14 12:32:00,
2013-04-14 08:42:00,44.0,39.0,29.95,SSE,160,2.0,5.0,83,0.00,,,0.00,,2013-04-14 12:42:00,
2013-04-14 08:52:00,45.0,40.0,29.95,SSE,162,2.0,7.0,82,0.00,,,0.00,,2013-04-14 12:52:00,
2013-04-14 09:02:00,45.0,40.0,29.96,SSE,160,1.0,6.0,81,0.00,,,0.00,,2013-04-14 13:02:00,
2013-04-14 09:12:00,45.0,40.0,29.96,SSE,160,1.0,6.0,81,0.00,,,0.00,,2013-04-14 13:12:00,
2013-04-14 09:22:00,46.0,41.0,29.96,SSE,167,1.0,5.0,81,0.00,,,0.00,,2013-04-14 13:22:00,
2013-04-14 09:32:00,46.0,40.0,29.96,South,171,2.0,6.0,80,0.00,,,0.00,,2013-04-14 13:32:00,
2013-04-14 09:42:00,46.0,40.0,29.96,South,171,2.0,6.0,80,0.00,,,0.00,,2013-04-14 13:42:00,
2013-04-14 09:52:00,47.0,41.0,29.96,ESE,122,2.0,7.0,79,0.00,,,0.00,,2013-04-14 13:52:00,
2013-04-14 10:02:00,48.0,41.0,29.94,SE,138,2.0,9.0,77,0.00,,,0.00,,2013-04-14 14:02:00,
2013-04-14 10:12:00,49.0,42.0,29.94,South,176,2.0,8.0,77,0.00,,,0.00,,2013-04-14 14:12:00,
2013-04-14 10:22:00,49.0,42.0,29.94,South,176,2.0,8.0,77,0.00,,,0.00,,2013-04-14 14:22:00,
2013-04-14 10:32:00,50.0,42.0,29.94,SSE,163,4.0,9.0,74,0.00,,,0.00,,2013-04-14 14:32:00,
2013-04-14 10:42:00,50.0,42.0,29.94,SSE,163,4.0,9.0,74,0.00,,,0.00,,2013-04-14 14:42:00,
2013-04-14 10:53:00,51.0,43.0,29.93,South,175,3.0,10.0,73,0.00,,,0.00,,2013-04-14 14:53:00,
2013-04-14 11:02:00,52.0,43.0,29.92,SSW,194,3.0,8.0,71,0.00,,,0.00,,2013-04-14 15:02:00,
2013-04-14 11:12:00,52.0,43.0,29.92,SSW,194,3.0,8.0,71,0.00,,,0.00,,2013-04-14 15:12:00,
2013-04-14 11:22:00,54.0,44.0,29.92,SSW,202,2.0,6.0,69,0.00,,,0.00,,2013-04-14 15:22:00,
2013-04-14 11:33:00,55.0,45.0,29.91,SSW,196,1.0,9.0,69,0.00,,,0.00,,2013-04-14 15:33:00,
2013-04-14 11:43:00,55.0,45.0,29.91,SSW,196,1.0,9.0,69,0.00,,,0.00,,2013-04-14 15:43:00,
2013-04-14 11:53:00,57.0,45.0,29.91,SSE,160,3.0,7.0,64,0.00,,,0.00,,2013-04-14 15:53:00,
2013-04-14 12:04:00,58.0,45.0,29.91,SW,225,3.0,7.0,63,0.00,,,0.00,,2013-04-14 16:04:00,
2013-04-14 12:13:00,58.0,45.0,29.91,SW,225,3.0,7.0,63,0.00,,,0.00,,2013-04-14 16:13:00,
2013-04-14 12:22:00,59.0,48.0,29.90,SW,234,2.0,8.0,66,0.00,,,0.00,,2013-04-14 16:22:00,
2013-04-14 12:32:00,60.0,47.0,29.90,SSE,159,3.0,9.0,63,0.00,,,0.00,,2013-04-14 16:32:00,
2013-04-14 12:43:00,60.0,47.0,29.90,SSE,159,3.0,9.0,63,0.00,,,0.00,,2013-04-14 16:43:00,
2013-04-14 12:53:00,61.0,48.0,29.90,SW,223,3.0,7.0,62,0.00,,,0.00,,2013-04-14 16:53:00,
2013-04-14 13:02:00,62.0,48.0,29.89,SSE,159,3.0,7.0,60,0.00,,,0.00,,2013-04-14 17:02:00,
2013-04-14 13:12:00,62.0,48.0,29.89,SSE,159,3.0,7.0,60,0.00,,,0.00,,2013-04-14 17:12:00,
2013-04-14 13:22:00,64.0,50.0,29.88,SW,223,4.0,7.0,60,0.00,,,0.00,,2013-04-14 17:22:00,
2013-04-14 13:32:00,65.0,50.0,29.87,South,187,5.0,11.0,59,0.00,,,0.00,,2013-04-14 17:32:00,
2013-04-14 13:42:00,65.0,50.0,29.87,South,187,5.0,11.0,59,0.00,,,0.00,,2013-04-14 17:42:00,
2013-04-14 13:53:00,66.0,49.0,29.87,WSW,246,3.0,7.0,55,0.00,,,0.00,,2013-04-14 17:53:00,
2013-04-14 14:02:00,68.0,52.0,29.85,WSW,257,3.0,8.0,56,0.00,,,0.00,,2013-04-14 18:02:00,
2013-04-14 14:12:00,68.0,52.0,29.85,WSW,257,3.0,8.0,56,0.00,,,0.00,,2013-04-14 18:12:00,
2013-04-14 14:22:00,68.0,50.0,29.85,WSW,255,3.0,9.0,53,0.00,,,0.00,,2013-04-14 18:22:00,
2013-04-14 14:32:00,69.0,52.0,29.85,SSW,207,2.0,10.0,55,0.00,,,0.00,,2013-04-14 18:32:00,
2013-04-14 14:42:00,69.0,52.0,29.85,SSW,207,2.0,10.0,55,0.00,,,0.00,,2013-04-14 18:42:00,
2013-04-14 14:53:00,70.0,52.0,29.84,SW,217,4.0,9.0,53,0.00,,,0.00,,2013-04-14 18:53:00,
2013-04-14 15:03:00,70.0,52.0,29.83,West,281,4.0,9.0,53,0.00,,,0.00,,2013-04-14 19:03:00,
2013-04-14 15:12:00,70.0,52.0,29.83,West,281,4.0,9.0,53,0.00,,,0.00,,2013-04-14 19:12:00,
2013-04-14 15:22:00,71.0,52.0,29.83,SSE,164,3.0,9.0,51,0.00,,,0.00,,2013-04-14 19:22:00,
2013-04-14 15:32:00,71.0,53.0,29.82,SSW,203,1.0,11.0,53,0.00,,,0.00,,2013-04-14 19:32:00,
2013-04-14 15:42:00,71.0,53.0,29.82,SSW,203,1.0,11.0,53,0.00,,,0.00,,2013-04-14 19:42:00,
2013-04-14 15:52:00,72.0,52.0,29.81,SSW,209,4.0,10.0,49,0.00,,,0.00,,2013-04-14 19:52:00,
2013-04-14 16:02:00,72.0,51.0,29.81,SSW,197,5.0,10.0,48,0.00,,,0.00,,2013-04-14 20:02:00,
2013-04-14 16:12:00,72.0,51.0,29.81,SSW,197,5.0,10.0,48,0.00,,,0.00,,2013-04-14 20:12:00,
2013-04-14 16:22:00,73.0,52.0,29.80,WSW,252,2.0,6.0,47,0.00,,,0.00,,2013-04-14 20:22:00,
2013-04-14 16:33:00,73.0,52.0,29.79,SSW,213,5.0,10.0,48,0.00,,,0.00,,2013-04-14 20:33:00,
2013-04-14 16:42:00,73.0,52.0,29.79,SSW,213,5.0,10.0,48,0.00,,,0.00,,2013-04-14 20:42:00,
2013-04-14 16:52:00,73.0,52.0,29.78,SW,221,3.0,11.0,47,0.00,,,0.00,,2013-04-14 20:52:00,
2013-04-14 17:02:00,72.0,51.0,29.78,SSW,211,5.0,11.0,48,0.00,,,0.00,,2013-04-14 21:02:00,
2013-04-14 17:12:00,72.0,51.0,29.78,SSW,211,5.0,11.0,48,0.00,,,0.00,,2013-04-14 21:12:00,
2013-04-14 17:23:00,73.0,52.0,29.78,SSW,197,3.0,9.0,47,0.00,,,0.00,,2013-04-14 21:23:00,
2013-04-14 17:33:00,73.0,54.0,29.78,West,276,4.0,9.0,51,0.00,,,0.00,,2013-04-14 21:33:00,
2013-04-14 17:43:00,73.0,54.0,29.78,West,276,4.0,9.0,51,0.00,,,0.00,,2013-04-14 21:43:00,
2013-04-14 17:53:00,73.0,53.0,29.77,SSE,165,3.0,13.0,49,0.00,,,0.00,,2013-04-14 21:53:00,
2013-04-14 18:03:00,72.0,52.0,29.77,SSW,205,4.0,17.0,49,0.00,,,0.00,,2013-04-14 22:03:00,
2013-04-14 18:12:00,72.0,52.0,29.77,SSW,205,4.0,17.0,49,0.00,,,0.00,,2013-04-14 22:12:00,
2013-04-14 18:23:00,72.0,52.0,29.77,West,267,4.0,8.0,50,0.00,,,0.00,,2013-04-14 22:23:00,
2013-04-14 18:32:00,72.0,52.0,29.76,SSE,152,4.0,9.0,50,0.00,,,0.00,,2013-04-14 22:32:00,
2013-04-14 18:43:00,72.0,52.0,29.76,SSE,152,4.0,9.0,50,0.00,,,0.00,,2013-04-14 22:43:00,
2013-04-14 18:53:00,71.0,50.0,29.76,South,185,4.0,8.0,48,0.00,,,0.00,,2013-04-14 22:53:00,
2013-04-14 19:02:00,71.0,50.0,29.76,SSW,203,2.0,7.0,47,0.00,,,0.00,,2013-04-14 23:02:00,
2013-04-14 19:12:00,71.0,50.0,29.76,SSW,203,2.0,7.0,47,0.00,,,0.00,,2013-04-14 23:12:00,
2013-04-14 19:22:00,71.0,50.0,29.76,SW,219,3.0,8.0,47,0.00,,,0.00,,2013-04-14 23:22:00,
2013-04-14 19:32:00,70.0,49.0,29.75,WSW,254,2.0,8.0,47,0.00,,,0.00,,2013-04-14 23:32:00,
2013-04-14 19:42:00,70.0,49.0,29.75,WSW,254,2.0,8.0,47,0.00,,,0.00,,2013-04-14 23:42:00,
2013-04-14 19:53:00,70.0,50.0,29.75,South,190,2.0,8.0,49,0.00,,,0.00,,2013-04-14 23:53:00,
2013-04-14 20:02:00,69.0,49.0,29.75,NE,39,2.0,6.0,49,0.00,,,0.00,,2013-04-15 00:02:00,
2013-04-14 20:12:00,69.0,49.0,29.75,NE,39,2.0,6.0,49,0.00,,,0.00,,2013-04-15 00:12:00,
2013-04-14 20:22:00,68.0,48.0,29.75,South,183,1.0,7.0,49,0.00,,,0.00,,2013-04-15 00:22:00,
2013-04-14 20:32:00,67.0,48.0,29.75,SSE,163,2.0,12.0,51,0.00,,,0.00,,2013-04-15 00:32:00,
2013-04-14 20:42:00,67.0,49.0,29.75,SSW,202,4.0,9.0,53,0.00,,,0.00,,2013-04-15 00:42:00,
2013-04-14 20:52:00,67.0,49.0,29.75,SSW,202,4.0,9.0,53,0.00,,,0.00,,2013-04-15 00:52:00,
2013-04-14 21:02:00,66.0,50.0,29.75,SSW,211,3.0,7.0,56,0.00,,,0.00,,2013-04-15 01:02:00,
2013-04-14 21:12:00,66.0,50.0,29.75,SSW,211,3.0,7.0,56,0.00,,,0.00,,2013-04-15 01:12:00,
2013-04-14 21:23:00,64.0,48.0,29.76,SW,222,2.0,5.0,57,0.00,,,0.00,,2013-04-15 01:23:00,
2013-04-14 21:32:00,64.0,49.0,29.77,SSW,194,2.0,9.0,58,0.00,,,0.00,,2013-04-15 01:32:00,
2013-04-14 21:42:00,64.0,49.0,29.77,SSW,194,2.0,9.0,58,0.00,,,0.00,,2013-04-15 01:42:00,
2013-04-14 21:52:00,64.0,49.0,29.77,SSW,202,3.0,7.0,58,0.00,,,0.00,,2013-04-15 01:52:00,
2013-04-14 22:02:00,63.0,48.0,29.77,SSW,206,2.0,10.0,59,0.00,,,0.00,,2013-04-15 02:02:00,
2013-04-14 22:12:00,63.0,48.0,29.77,SSW,206,2.0,10.0,59,0.00,,,0.00,,2013-04-15 02:12:00,
2013-04-14 22:22:00,63.0,48.0,29.77,SW,217,2.0,8.0,58,0.00,,,0.00,,2013-04-15 02:22:00,
2013-04-14 22:32:00,63.0,48.0,29.77,South,172,4.0,10.0,58,0.00,,,0.00,,2013-04-15 02:32:00,
2013-04-14 22:42:00,63.0,48.0,29.77,South,172,4.0,10.0,58,0.00,,,0.00,,2013-04-15 02:42:00,
2013-04-14 22:52:00,63.0,48.0,29.78,SSW,210,2.0,7.0,59,0.00,,,0.00,,2013-04-15 02:52:00,
2013-04-14 23:02:00,62.0,48.0,29.78,SSE,167,1.0,8.0,61,0.00,,,0.00,,2013-04-15 03:02:00,
2013-04-14 23:12:00,62.0,48.0,29.78,SSE,167,1.0,8.0,61,0.00,,,0.00,,2013-04-15 03:12:00,
2013-04-14 23:22:00,61.0,48.0,29.78,South,188,1.0,5.0,63,0.00,,,0.00,,2013-04-15 03:22:00,
2013-04-14 23:32:00,60.0,49.0,29.78,SSW,203,1.0,7.0,67,0.00,,,0.00,,2013-04-15 03:32:00,
2013-04-14 23:43:00,60.0,49.0,29.78,SSW,203,1.0,7.0,67,0.00,,,0.00,,2013-04-15 03:43:00,
2013-04-14 23:54:00,60.0,49.0,29.78,SSW,196,1.0,10.0,66,0.00,,,0.00,,2013-04-15 03:54:00,